When you browse on this site, cookies collect data to enhance your experience and personalize the content and advertising you see.
Visit our Privacy Policy to learn more. By continuing to use the site, you agree to this use of cookies and data.
  • In Belgium
  • List of Countries
  • For 7 days
  • Water Temperature
  • Weather Map
  • Weather Widgets
  • user-avatar
    Login

    Hourly Weather Siempang

    Today, 18 November, Monday

    Time Temperature Precipitation Wind Pressure Humidity
    00:00 +23°C° 0 mm 0 mps 752 mmHg 86%
    01:00 +22°C° 0 mm 0 mps 752 mmHg 88%
    02:00 +22°C° 0 mm 0 mps 752 mmHg 89%
    03:00 +22°C° 0 mm 0 mps 752 mmHg 90%
    04:00 +22°C° 0 mm 0 mps 752 mmHg 92%
    05:00 +22°C° 0 mm 0 mps 753 mmHg 90%
    06:00 +23°C° 0 mm 0 mps 753 mmHg 89%
    07:00 +23°C° 0 mm 0 mps 754 mmHg 87%
    08:00 +26°C° 0 mm 0 mps 754 mmHg 78%
    09:00 +29°C° 0 mm 0 mps 754 mmHg 68%
    10:00 +31°C° 0 mm 0 mps 754 mmHg 58%
    11:00 +32°C° 0 mm 0 mps 753 mmHg 56%
    12:00 +32°C° 0 mm 0 mps 752 mmHg 53%
    13:00 +32°C° 0 mm 0 mps 751 mmHg 51%
    14:00 +32°C° 0 mm 0 mps 751 mmHg 54%
    15:00 +32°C° 0 mm 0 mps 750 mmHg 57%
    16:00 +31°C° 0 mm 0 mps 750 mmHg 59%
    17:00 +29°C° 0 mm 0 mps 751 mmHg 67%
    18:00 +27°C° 0 mm 0 mps 751 mmHg 76%
    19:00 +25°C° 0 mm 0 mps 752 mmHg 84%
    20:00 +26°C° 0.1 mm 1 mps 752 mmHg 86%
    21:00 +26°C° 0.1 mm 1 mps 753 mmHg 88%
    22:00 +25°C° 0.1 mm 1 mps 753 mmHg 90%
    23:00 +25°C° 0 mm 1 mps 753 mmHg 91%

    Tomorrow, 19 November, Tuesday

    Time Temperature Precipitation Wind Pressure Humidity
    00:00 +24°C° 0 mm 1 mps 752 mmHg 92%
    01:00 +24°C° 0 mm 1 mps 752 mmHg 92%
    02:00 +23°C° 0 mm 1 mps 752 mmHg 93%
    03:00 +21°C° 0 mm 0 mps 752 mmHg 94%
    04:00 +20°C° 0 mm 0 mps 752 mmHg 95%
    05:00 +21°C° 0 mm 0 mps 752 mmHg 93%
    06:00 +21°C° 0 mm 0 mps 753 mmHg 91%
    07:00 +22°C° 0 mm 0 mps 753 mmHg 90%
    08:00 +24°C° 0 mm 0 mps 753 mmHg 79%
    09:00 +29°C° 0 mm 1 mps 753 mmHg 68%
    10:00 +31°C° 0 mm 1 mps 754 mmHg 57%
    11:00 +32°C° 0 mm 1 mps 753 mmHg 54%
    12:00 +33°C° 0 mm 1 mps 752 mmHg 50%
    13:00 +34°C° 0 mm 1 mps 752 mmHg 46%
    14:00 +33°C° 0 mm 1 mps 751 mmHg 51%
    15:00 +30°C° 0 mm 0 mps 751 mmHg 55%
    16:00 +30°C° 0 mm 0 mps 750 mmHg 59%
    17:00 +30°C° 0 mm 1 mps 751 mmHg 65%
    18:00 +28°C° 0 mm 1 mps 752 mmHg 70%
    19:00 +26°C° 0 mm 1 mps 752 mmHg 76%
    20:00 +25°C° 0 mm 1 mps 752 mmHg 77%
    21:00 +23°C° 0 mm 0 mps 753 mmHg 78%
    22:00 +22°C° 0 mm 0 mps 753 mmHg 79%
    23:00 +21°C° 0 mm 0 mps 753 mmHg 80%

    Day after tomorrow, 20 November, Wednesday

    Time Temperature Precipitation Wind Pressure Humidity
    00:00 +21°C° 0 mm 0 mps 753 mmHg 81%
    01:00 +20°C° 0 mm 0 mps 753 mmHg 82%
    02:00 +20°C° 0 mm 0 mps 753 mmHg 83%
    03:00 +19°C° 0 mm 0 mps 752 mmHg 85%
    04:00 +19°C° 0 mm 0 mps 752 mmHg 86%
    05:00 +19°C° 0 mm 0 mps 753 mmHg 85%
    06:00 +20°C° 0 mm 0 mps 753 mmHg 84%
    07:00 +20°C° 0 mm 0 mps 753 mmHg 82%
    08:00 +23°C° 0 mm 0 mps 753 mmHg 73%
    09:00 +28°C° 0 mm 1 mps 754 mmHg 63%
    10:00 +31°C° 0 mm 1 mps 754 mmHg 53%
    11:00 +32°C° 0 mm 1 mps 753 mmHg 50%
    12:00 +33°C° 0 mm 1 mps 752 mmHg 46%
    13:00 +34°C° 0 mm 1 mps 751 mmHg 42%
    14:00 +33°C° 0 mm 1 mps 751 mmHg 47%
    15:00 +30°C° 0 mm 0 mps 751 mmHg 51%
    16:00 +30°C° 0 mm 0 mps 750 mmHg 56%
    17:00 +30°C° 0 mm 1 mps 751 mmHg 61%
    18:00 +28°C° 0 mm 1 mps 751 mmHg 66%
    19:00 +26°C° 0 mm 1 mps 752 mmHg 71%
    20:00 +26°C° 0 mm 1 mps 752 mmHg 73%
    21:00 +23°C° 0 mm 0 mps 752 mmHg 76%
    22:00 +23°C° 0 mm 0 mps 753 mmHg 79%
    23:00 +22°C° 0 mm 0 mps 753 mmHg 82%

    21 November, Thursday

    Time Temperature Precipitation Wind Pressure Humidity
    00:00 +21°C° 0 mm 0 mps 753 mmHg 85%
    01:00 +21°C° 0 mm 0 mps 753 mmHg 88%
    02:00 +20°C° 0 mm 0 mps 752 mmHg 89%
    03:00 +20°C° 0 mm 0 mps 752 mmHg 90%
    04:00 +20°C° 0 mm 0 mps 752 mmHg 91%
    05:00 +20°C° 0 mm 0 mps 752 mmHg 89%
    06:00 +20°C° 0 mm 0 mps 753 mmHg 87%
    07:00 +21°C° 0 mm 0 mps 753 mmHg 85%
    08:00 +26°C° 0 mm 1 mps 753 mmHg 75%
    09:00 +28°C° 0 mm 1 mps 753 mmHg 65%
    10:00 +31°C° 0 mm 1 mps 753 mmHg 55%
    11:00 +32°C° 0 mm 1 mps 753 mmHg 51%
    12:00 +33°C° 0 mm 1 mps 752 mmHg 47%
    13:00 +35°C° 0 mm 1 mps 751 mmHg 43%
    14:00 +34°C° 0 mm 1 mps 751 mmHg 48%
    15:00 +31°C° 0 mm 0 mps 750 mmHg 52%
    16:00 +30°C° 0 mm 0 mps 750 mmHg 57%
    17:00 +31°C° 0 mm 1 mps 751 mmHg 61%
    18:00 +29°C° 0 mm 1 mps 751 mmHg 66%
    19:00 +27°C° 0 mm 1 mps 751 mmHg 70%
    20:00 +26°C° 0 mm 1 mps 752 mmHg 74%
    21:00 +23°C° 0 mm 0 mps 752 mmHg 77%
    22:00 +23°C° 0 mm 0 mps 752 mmHg 80%
    23:00 +22°C° 0 mm 0 mps 752 mmHg 82%

    22 November, Friday

    Time Temperature Precipitation Wind Pressure Humidity
    00:00 +22°C° 0 mm 0 mps 752 mmHg 84%
    01:00 +21°C° 0 mm 0 mps 751 mmHg 87%
    02:00 +21°C° 0 mm 0 mps 751 mmHg 87%
    03:00 +21°C° 0 mm 0 mps 751 mmHg 88%
    04:00 +21°C° 0 mm 0 mps 751 mmHg 89%
    05:00 +21°C° 0 mm 0 mps 752 mmHg 88%
    06:00 +24°C° 0 mm 1 mps 752 mmHg 86%
    07:00 +24°C° 0 mm 1 mps 753 mmHg 85%
    08:00 +27°C° 0 mm 1 mps 753 mmHg 76%
    09:00 +29°C° 0 mm 1 mps 753 mmHg 66%
    10:00 +32°C° 0 mm 1 mps 753 mmHg 57%
    11:00 +32°C° 0 mm 1 mps 752 mmHg 55%
    12:00 +31°C° 0 mm 0 mps 751 mmHg 54%
    13:00 +31°C° 0 mm 0 mps 750 mmHg 52%
    14:00 +31°C° 0 mm 0 mps 750 mmHg 55%
    15:00 +31°C° 0 mm 0 mps 750 mmHg 57%
    16:00 +30°C° 0 mm 0 mps 750 mmHg 60%
    17:00 +28°C° 0 mm 0 mps 750 mmHg 65%
    18:00 +27°C° 0 mm 0 mps 751 mmHg 71%
    19:00 +25°C° 0 mm 0 mps 751 mmHg 77%
    20:00 +25°C° 0 mm 0 mps 752 mmHg 78%
    21:00 +24°C° 0 mm 0 mps 752 mmHg 80%
    22:00 +26°C° 0 mm 1 mps 752 mmHg 81%
    23:00 +26°C° 0 mm 1 mps 752 mmHg 85%

    23 November, Saturday

    Time Temperature Precipitation Wind Pressure Humidity
    00:00 +23°C° 0 mm 0 mps 752 mmHg 88%
    01:00 +22°C° 0 mm 0 mps 752 mmHg 92%
    02:00 +22°C° 0 mm 0 mps 752 mmHg 92%
    03:00 +22°C° 0 mm 0 mps 752 mmHg 93%
    04:00 +22°C° 0 mm 0 mps 752 mmHg 94%
    05:00 +22°C° 0 mm 0 mps 752 mmHg 91%
    06:00 +22°C° 0 mm 0 mps 752 mmHg 89%
    07:00 +23°C° 0 mm 0 mps 753 mmHg 87%
    08:00 +25°C° 0 mm 0 mps 753 mmHg 76%
    09:00 +28°C° 0 mm 0 mps 753 mmHg 66%
    10:00 +31°C° 0 mm 0 mps 753 mmHg 55%
    11:00 +34°C° 0 mm 1 mps 752 mmHg 51%
    12:00 +35°C° 0 mm 1 mps 751 mmHg 46%
    13:00 +36°C° 0 mm 1 mps 750 mmHg 42%
    14:00 +35°C° 0 mm 1 mps 750 mmHg 45%
    15:00 +32°C° 0 mm 0 mps 750 mmHg 48%
    16:00 +32°C° 0 mm 0 mps 750 mmHg 51%
    17:00 +30°C° 0 mm 0 mps 750 mmHg 57%
    18:00 +27°C° 0 mm 0 mps 750 mmHg 63%
    19:00 +25°C° 0 mm 0 mps 751 mmHg 69%
    20:00 +26°C° 0 mm 1 mps 751 mmHg 72%
    21:00 +26°C° 0 mm 1 mps 752 mmHg 75%
    22:00 +25°C° 0 mm 1 mps 752 mmHg 79%
    23:00 +25°C° 0 mm 1 mps 752 mmHg 82%
    Show more